[[{"header":{"parameterUnit":"m.s-1","parameterCategory":2,"la1":30.2991,"la2":30.254,"lo1":-89.0895,"lo2":-89.0444,"dy":0.0017,"dx":0.0017,"nx":28,"ny":28,"refTime":"2024-07-12T09:00:00:Z","depth":"0","parameterNumber":2,"parameterNumberName":"U-component_of_CURRENTS"},"data":[0,0,0,0,0,0,0,0,0,0,0,0,0,0,0,0,0,0,0,0,0,0,0,0,0,0,0,0,0,0,0,0,0,0,0,0,0,0,0,0,0,0,0,0,0,0,0,0,0,0,0,0,0,0,0,0,0,0,0.2297,0.2298,0,0.2392,0.2393,0.2394,0.2458,0.2459,0.2459,0.246,0.2602,0.2606,0.2609,0,0,0,0,0,0,0,0,0,0,0,0,0,0.2175,0.2177,0.2297,0.2298,0.23,0.2392,0.2393,0.2394,0.2458,0.2459,0.2459,0.246,0.2601,0.2605,0.2609,0,0,0,0,0,0,0,0,0,0,0,0,0,0.2244,0.2178,0.2297,0.2343,0.2349,0.2391,0.2393,0.2394,0.2458,0.2459,0.246,0.246,0.26,0.2605,0.261,0.2624,0,0,0.2625,0.2627,0,0,0,0,0,0,0,0,0.224,0.2248,0.2335,0.234,0.2346,0.2415,0.2402,0.2474,0.2458,0.2415,0.246,0.2461,0.2544,0.2554,0.2568,0.263,0.2636,0.2625,0.2628,0.263,0.2632,0,0,0,0,0,0,0,0.2235,0.2245,0.2334,0.2337,0.2343,0.2361,0.2371,0.2416,0.2474,0.2419,0.2424,0.2436,0.2547,0.2563,0.2572,0.2639,0.2625,0.2629,0.2633,0.2634,0.2748,0.2748,0,0,0,0,0,0,0.2225,0.224,0.2331,0.2337,0.2295,0.2362,0.2374,0.2391,0.2473,0.2486,0.2435,0.2439,0.2554,0.2566,0.2577,0.2627,0.263,0.2635,0.2638,0.2748,0.2748,0.2748,0,0,0,0,0,0,0.2222,0.2232,0.2327,0.2291,0.2304,0.2364,0.2382,0.2393,0.2411,0.2485,0.2499,0.2444,0.2555,0.257,0.2618,0.2632,0.2637,0.2642,0.2748,0.2748,0.2748,0.2708,0,0,0,0,0,0,0.2218,0.223,0.2238,0.229,0.2306,0.2356,0.2382,0.2394,0.2418,0.2423,0.2497,0.2511,0.2557,0.261,0.2623,0.2639,0.2645,0.2748,0.2748,0.2748,0.2709,0.2707,0.2704,0,0,0,0,0,0.2213,0.2249,0.2238,0.2249,0.2315,0.2357,0.2366,0.241,0.2417,0.2428,0.2473,0.2508,0.262,0.2614,0.2629,0.2646,0.2748,0.2748,0.2748,0.271,0.2707,0.2705,0,0,0,0,0,0,0.2222,0.226,0.2249,0.2298,0.2314,0.2368,0.2394,0.2403,0.2445,0.2453,0.251,0.2527,0.2577,0.261,0.2602,0.2678,0.269,0.2693,0.2656,0.2654,0.2651,0.2706,0.265,0,0,0,0,0,0.2215,0.2241,0.2266,0.2301,0.2308,0.2336,0.2357,0.2377,0.2421,0.244,0.2483,0.2535,0.2587,0.2617,0.2667,0.2705,0.2776,0.2725,0.2722,0.272,0.2773,0.2871,0.2884,0.2748,0.2748,0.2748,0,0,0.224,0.2252,0.2276,0.2301,0.232,0.2354,0.2353,0.2386,0.2418,0.245,0.2505,0.2529,0.2595,0.2643,0.2668,0.2674,0.2787,0.272,0.2718,0.2774,0.2873,0.2887,0.2899,0.2748,0.2748,0.2748,0,0,0.231,0.2294,0.2344,0.2345,0.236,0.2367,0.2369,0.2402,0.2419,0.2458,0.2491,0.2529,0.2595,0.2651,0.2688,0.2703,0.2771,0.2696,0.2735,0.2827,0.284,0.2852,0.2927,0.2947,0.2696,0.2695,0.2695,0,0.2343,0.238,0.2364,0.2398,0.2402,0.2372,0.2413,0.2428,0.247,0.2487,0.2477,0.2578,0.2617,0.2703,0.2708,0.2705,0.276,0.2736,0.2827,0.2841,0.2855,0.2929,0.2951,0.2694,0.2694,0.2694,0.2694,0,0.2454,0.2457,0.2481,0.2499,0.2502,0.2521,0.252,0.2522,0.2512,0.2531,0.2585,0.2625,0.2697,0.269,0.2714,0.2814,0.2821,0.281,0.2837,0.2866,0.2941,0.2965,0.2691,0.2692,0.2692,0.2693,0,0,0.2609,0.2568,0.2575,0.2556,0.2541,0.2555,0.258,0.2597,0.2617,0.2635,0.269,0.2753,0.2755,0.2801,0.281,0.2882,0.2997,0.2888,0.2894,0.297,0.3199,0.3055,0.3068,0.2996,0.3001,0.3005,0.32,0,0.2698,0.2734,0.27,0.272,0.2727,0.2669,0.269,0.2695,0.2688,0.2725,0.2758,0.2814,0.2801,0.2824,0.2899,0.298,0.3066,0.2947,0.3156,0.3164,0.3039,0.3093,0.292,0.3067,0.3224,0.3228,0.3231,0,0.2837,0.2816,0.2848,0.2773,0.2776,0.2789,0.277,0.2784,0.2811,0.2812,0.2863,0.2883,0.2997,0.2966,0.3165,0.3087,0.3167,0.3219,0.3226,0.3142,0.3067,0.3071,0.3106,0.2983,0.3269,0.3266,0.3263,0,0.2945,0.2919,0.2921,0.2906,0.2848,0.2851,0.2824,0.2826,0.2832,0.2879,0.2904,0.3006,0.3076,0.3197,0.3289,0.3251,0.3497,0.3452,0.3406,0.3396,0.3321,0.3295,0.3278,0.3628,0.3628,0.3627,0.3627,0,0.3046,0.3049,0.2962,0.2968,0.2963,0.2909,0.2923,0.2906,0.2914,0.2941,0.2965,0.3024,0.3143,0.3264,0.3348,0.3448,0.3555,0.3456,0.3452,0.3292,0.3263,0.3209,0.3167,0.3634,0.3633,0.3631,0.363,0,0.3172,0.3116,0.3114,0.3043,0.3018,0.3024,0.2964,0.2968,0.2967,0.3012,0.3037,0.3099,0.3217,0.3313,0.3507,0.3511,0.3504,0.3633,0.3417,0.3381,0.3151,0.3112,0.307,0.2996,0.3615,0.3613,0.3611,0,0.3232,0.325,0.3183,0.3165,0.3131,0.3104,0.3078,0.3022,0.3017,0.3053,0.3088,0.3186,0.3245,0.3427,0.3434,0.3535,0.3449,0.3428,0.3313,0.3143,0.3102,0.2982,0.2916,0.3206,0.3201,0.3197,0.3194,0,0.335,0.3336,0.3314,0.3267,0.3232,0.318,0.3134,0.3132,0.3078,0.3104,0.3147,0.3197,0.3275,0.3243,0.3296,0.3338,0.3198,0.3341,0.3252,0.286,0.2654,0.2575,0.3066,0.3158,0.3161,0.3164,0.3166,0.3167,0.3438,0.3437,0.3395,0.3346,0.3299,0.323,0.3172,0.3134,0.311,0.3062,0.3155,0.3131,0.3075,0.3081,0.3092,0.2891,0.295,0.2801,0.2801,0.272,0.2533,0.2913,0.2922,0.2924,0.2926,0.2927,0.2929,0,0.3505,0.3473,0.3455,0.3369,0.3303,0.3261,0.3172,0.3085,0.3027,0.3003,0.3002,0.286,0.2764,0.268,0.2487,0.2379,0.231,0.2313,0.2141,0.2132,0.256,0.2418,0.2208,0.2208,0.2208,0.2209,0.2209,0.2209,0.3537,0.3506,0.3466,0.3362,0.3295,0.3141,0.3065,0.2956,0.288,0.2693,0.2547,0.2513,0.2381,0.2199,0.1987,0.1958,0.1829,0.1716,0.1777,0.2084,0.2129,0.2173,0.2028,0.1739,0.1739,0.124,0.1236,0.1233]},{"header":{"parameterUnit":"m.s-1","parameterCategory":2,"la1":30.2991,"la2":30.254,"lo1":-89.0895,"lo2":-89.0444,"dy":0.0017,"dx":0.0017,"nx":28,"ny":28,"refTime":"2024-07-12T09:00:00:Z","depth":"0","parameterNumber":3,"parameterNumberName":"V-component_of_CURRENTS"},"data":[0,0,0,0,0,0,0,0,0,0,0,0,0,0,0,0,0,0,0,0,0,0,0,0,0,0,0,0,0,0,0,0,0,0,0,0,0,0,0,0,0,0,0,0,0,0,0,0,0,0,0,0,0,0,0,0,0,0,0.0387,0.0386,0,0.0341,0.0341,0.0341,0.0297,0.0297,0.0296,0.0295,0.0227,0.0226,0.0225,0,0,0,0,0,0,0,0,0,0,0,0,0,0.0468,0.0467,0.0387,0.0386,0.0386,0.0341,0.0341,0.0341,0.0298,0.0297,0.0296,0.0295,0.0227,0.0226,0.0224,0,0,0,0,0,0,0,0,0,0,0,0,0,0.0431,0.0466,0.0387,0.0357,0.0354,0.0341,0.0341,0.034,0.0298,0.0297,0.0295,0.0294,0.0227,0.0226,0.0224,0.0238,0,0,0.0219,0.0219,0,0,0,0,0,0,0,0,0.0433,0.0428,0.0362,0.0359,0.0355,0.0322,0.0344,0.0304,0.0298,0.0322,0.0295,0.0294,0.0256,0.0252,0.025,0.0234,0.0231,0.0219,0.0218,0.0217,0.0217,0,0,0,0,0,0,0,0.0436,0.043,0.0372,0.0361,0.0357,0.0356,0.0349,0.0337,0.0297,0.032,0.0316,0.0307,0.0254,0.0251,0.0247,0.023,0.0219,0.0218,0.0217,0.0216,0.0211,0.0212,0,0,0,0,0,0,0.0436,0.0433,0.0373,0.037,0.0389,0.0355,0.0348,0.0336,0.0298,0.029,0.0308,0.0305,0.0255,0.0249,0.0245,0.0271,0.0217,0.0216,0.0215,0.021,0.0211,0.0212,0,0,0,0,0,0,0.0438,0.0431,0.0375,0.0398,0.0391,0.0354,0.0341,0.0335,0.0328,0.0289,0.0281,0.0305,0.0254,0.0247,0.0245,0.0267,0.0215,0.0214,0.0209,0.021,0.0212,0.0315,0,0,0,0,0,0,0.044,0.0432,0.0435,0.0398,0.0389,0.0378,0.0342,0.0335,0.0323,0.0319,0.0284,0.0277,0.0252,0.0248,0.0243,0.0264,0.0212,0.0208,0.021,0.0211,0.0311,0.032,0.0328,0,0,0,0,0,0.0443,0.0457,0.0436,0.0429,0.0391,0.0379,0.0376,0.0347,0.0324,0.0334,0.0311,0.0278,0.0254,0.0248,0.0242,0.0263,0.0207,0.0209,0.0211,0.0307,0.0318,0.0327,0,0,0,0,0,0,0.0503,0.0452,0.0428,0.0427,0.0406,0.0371,0.0379,0.0352,0.0342,0.0334,0.0295,0.0288,0.0294,0.0263,0.0257,0.0264,0.0222,0.0223,0.0297,0.0307,0.0315,0.0345,0.0211,0,0,0,0,0,0.0514,0.0506,0.0461,0.0463,0.0453,0.0415,0.0409,0.0383,0.0362,0.0356,0.0331,0.0306,0.0299,0.0291,0.0277,0.0285,0.0273,0.0291,0.0299,0.0307,0.0326,0.0332,0.0344,0.0218,0.0218,0.0218,0,0,0.0537,0.051,0.0505,0.0475,0.0456,0.0456,0.041,0.0401,0.0406,0.0351,0.0361,0.0338,0.0308,0.0321,0.0319,0.0297,0.0337,0.0309,0.0316,0.0332,0.0335,0.0348,0.0359,0.022,0.0219,0.0219,0,0,0.0575,0.0555,0.0555,0.0541,0.051,0.0494,0.0491,0.0455,0.0447,0.0451,0.0415,0.0414,0.0391,0.0385,0.0376,0.0423,0.0384,0.0403,0.0471,0.0476,0.0487,0.0497,0.0505,0.0514,0.0405,0.0405,0.0405,0,0.0602,0.0585,0.0559,0.0557,0.055,0.0512,0.0515,0.0516,0.0486,0.049,0.0467,0.0461,0.043,0.0458,0.0471,0.0446,0.0438,0.0437,0.049,0.0499,0.0507,0.0512,0.0521,0.041,0.041,0.0409,0.0409,0,0.0628,0.0618,0.0624,0.0605,0.0612,0.0605,0.0594,0.0603,0.0587,0.0578,0.0599,0.0576,0.0572,0.0559,0.0531,0.057,0.0544,0.0504,0.0471,0.0527,0.0528,0.0535,0.0418,0.0416,0.0414,0.0413,0,0,0.0641,0.0638,0.0634,0.0628,0.0624,0.0625,0.0664,0.0673,0.0694,0.0692,0.0731,0.0723,0.0707,0.0697,0.0663,0.0668,0.0714,0.0615,0.0612,0.0635,0.0731,0.0682,0.0684,0.0681,0.0683,0.0684,0.0712,0,0.0648,0.0654,0.066,0.0675,0.0665,0.0675,0.0714,0.0733,0.0748,0.0787,0.0789,0.0809,0.0761,0.0762,0.0769,0.0737,0.0737,0.071,0.0663,0.0662,0.0621,0.0693,0.0666,0.0686,0.0719,0.0721,0.0721,0,0.0634,0.0638,0.0652,0.0677,0.068,0.0705,0.0753,0.0785,0.0847,0.0864,0.0907,0.0908,0.095,0.0883,0.0889,0.0874,0.0812,0.0778,0.0777,0.0703,0.0627,0.0632,0.0698,0.0608,0.0733,0.0732,0.0731,0,0.0598,0.062,0.0631,0.0635,0.0676,0.0702,0.0737,0.0797,0.0842,0.0919,0.097,0.101,0.1047,0.1006,0.0944,0.092,0.0932,0.0884,0.0783,0.0779,0.0734,0.0722,0.0719,0.0866,0.0866,0.0866,0.0866,0,0.0563,0.0563,0.0614,0.061,0.0653,0.0686,0.0748,0.0794,0.0881,0.0968,0.1005,0.1095,0.1077,0.1084,0.0998,0.0934,0.0973,0.0823,0.0793,0.0767,0.0759,0.0657,0.0624,0.0867,0.0867,0.0866,0.0866,0,0.0501,0.0525,0.0543,0.0602,0.0627,0.0657,0.0761,0.0821,0.0892,0.1019,0.1056,0.1176,0.1216,0.1158,0.111,0.101,0.0886,0.0872,0.0847,0.0813,0.0645,0.0619,0.0599,0.0585,0.0809,0.0808,0.0807,0,0.0464,0.0465,0.0542,0.0583,0.061,0.067,0.0734,0.0816,0.0899,0.108,0.1159,0.1247,0.135,0.1274,0.1107,0.0967,0.0871,0.0809,0.0755,0.0659,0.0608,0.0582,0.057,0.0741,0.074,0.0739,0.0738,0,0.0421,0.0456,0.0497,0.0576,0.0643,0.0731,0.0827,0.0897,0.1031,0.1162,0.1361,0.1461,0.141,0.1314,0.1086,0.0965,0.0767,0.0782,0.0698,0.058,0.0541,0.0503,0.0697,0.0729,0.073,0.0731,0.0731,0.0731,0.0416,0.0448,0.0524,0.0598,0.0686,0.0811,0.0909,0.104,0.1207,0.1441,0.1506,0.169,0.1475,0.121,0.1022,0.0658,0.0708,0.0548,0.0535,0.0524,0.0484,0.0658,0.0635,0.0636,0.0636,0.0636,0.0636,0,0.0424,0.048,0.0552,0.0669,0.0781,0.0827,0.1,0.1129,0.1359,0.156,0.1745,0.1738,0.1464,0.1156,0.0653,0.0435,0.0378,0.0335,0.0299,0.0308,0.0471,0.0437,0.0353,0.0353,0.0353,0.0353,0.0353,0.0353,0.0441,0.0514,0.0556,0.0735,0.0836,0.1021,0.1141,0.133,0.1503,0.1763,0.1881,0.1954,0.1663,0.0846,0.0329,0.0237,0.0146,0.0095,0.0086,0.0179,0.0198,0.0215,0.0174,0.0037,0.0036,-0.0076,-0.0077,-0.0078]}],[{"header":{"parameterUnit":"m.s-1","parameterCategory":2,"la1":30.2991,"la2":30.254,"lo1":-89.0895,"lo2":-89.0444,"dy":0.0017,"dx":0.0017,"nx":28,"ny":28,"refTime":"2024-07-12T09:00:00:Z","depth":"2","parameterNumber":2,"parameterNumberName":"U-component_of_CURRENTS"},"data":[0,0,0,0,0,0,0,0,0,0,0,0,0,0,0,0,0,0,0,0,0,0,0,0,0,0,0,0,0,0,0,0,0,0,0,0,0,0,0,0,0,0,0,0,0,0,0,0,0,0,0,0,0,0,0,0,0,0,0.1784,0.1785,0,0.1825,0.1824,0.1824,0.1777,0.1777,0.1776,0.1776,0.1721,0.172,0.1719,0,0,0,0,0,0,0,0,0,0,0,0,0,0.177,0.1769,0.1784,0.1786,0.1787,0.1825,0.1824,0.1823,0.1777,0.1777,0.1776,0.1776,0.1721,0.172,0.1719,0,0,0,0,0,0,0,0,0,0,0,0,0,0.1776,0.1768,0.1783,0.178,0.1781,0.1825,0.1824,0.1823,0.1777,0.1777,0.1776,0.1775,0.1722,0.172,0.1719,0.1721,0,0,0.1714,0.1713,0,0,0,0,0,0,0,0,0.1776,0.1775,0.1778,0.178,0.1782,0.1808,0.18,0.1789,0.1777,0.1763,0.1776,0.1775,0.1751,0.1747,0.1737,0.1719,0.1716,0.1713,0.1713,0.1712,0.1711,0,0,0,0,0,0,0,0.1775,0.1774,0.1785,0.1781,0.1783,0.1813,0.181,0.1798,0.1747,0.1764,0.1765,0.1793,0.1749,0.1738,0.1735,0.1716,0.1714,0.1712,0.1711,0.1711,0.1842,0.1846,0,0,0,0,0,0,0.1794,0.1772,0.1784,0.1788,0.1794,0.1815,0.1811,0.1788,0.1749,0.1748,0.1793,0.1791,0.1741,0.1737,0.1733,0.1815,0.1712,0.171,0.1709,0.1837,0.1843,0.1848,0,0,0,0,0,0,0.1793,0.1793,0.1783,0.1796,0.1799,0.1816,0.1791,0.179,0.1817,0.1775,0.1768,0.1828,0.1741,0.1735,0.1753,0.1809,0.171,0.1708,0.1832,0.1839,0.1845,0.1927,0,0,0,0,0,0,0.1791,0.179,0.1779,0.1796,0.1799,0.1821,0.1793,0.1792,0.184,0.1837,0.1802,0.1794,0.174,0.1756,0.1751,0.1805,0.1707,0.1826,0.1835,0.1843,0.1919,0.1936,0.1951,0,0,0,0,0,0.1789,0.179,0.1777,0.178,0.1781,0.1824,0.1827,0.1829,0.1843,0.1851,0.1842,0.1797,0.1807,0.1757,0.1751,0.1806,0.1822,0.1833,0.1842,0.1912,0.1933,0.195,0,0,0,0,0,0,0.1789,0.1787,0.1773,0.1772,0.1802,0.1822,0.1852,0.1864,0.1865,0.1872,0.1827,0.1818,0.1859,0.184,0.1786,0.188,0.182,0.1829,0.1875,0.1894,0.191,0.1916,0.1706,0,0,0,0,0,0.1784,0.1778,0.1791,0.1802,0.1821,0.1846,0.1871,0.1876,0.189,0.1892,0.1861,0.1866,0.1894,0.1897,0.1892,0.1931,0.1924,0.1979,0.1995,0.2008,0.2017,0.2079,0.21,0.188,0.188,0.188,0,0,0.1812,0.1798,0.1808,0.1804,0.183,0.1848,0.1855,0.1911,0.1933,0.1887,0.1897,0.1907,0.1919,0.1955,0.1977,0.1944,0.2067,0.202,0.203,0.2033,0.2091,0.2112,0.213,0.1887,0.1886,0.1885,0,0,0.1814,0.1834,0.1801,0.1834,0.187,0.1893,0.1924,0.1945,0.1962,0.1994,0.1983,0.203,0.2038,0.2053,0.2074,0.2187,0.2146,0.221,0.2286,0.2346,0.2363,0.2379,0.238,0.2395,0.2219,0.222,0.222,0,0.182,0.1789,0.1816,0.1799,0.1845,0.192,0.1927,0.1972,0.199,0.1996,0.2011,0.2071,0.209,0.2157,0.2223,0.2217,0.2231,0.2198,0.2362,0.2377,0.2391,0.2389,0.2404,0.2225,0.2224,0.2224,0.2223,0,0.1775,0.1787,0.1808,0.1793,0.1836,0.1896,0.1957,0.198,0.2036,0.2059,0.2131,0.2175,0.22,0.2257,0.2289,0.241,0.2379,0.2366,0.2298,0.2417,0.2408,0.2422,0.2232,0.223,0.2229,0.2228,0,0,0.169,0.1748,0.1756,0.1769,0.1855,0.1883,0.1944,0.1993,0.2016,0.2093,0.2122,0.2264,0.2292,0.2327,0.2374,0.2478,0.2615,0.2496,0.2496,0.2468,0.2722,0.2466,0.2455,0.2636,0.264,0.2643,0.2667,0,0.1643,0.161,0.1665,0.1719,0.1734,0.184,0.1877,0.1938,0.201,0.2049,0.2177,0.2242,0.2323,0.2366,0.2483,0.2578,0.266,0.2607,0.2636,0.2636,0.2371,0.2466,0.2342,0.2334,0.268,0.2683,0.2684,0,0.1555,0.1553,0.1559,0.1659,0.1675,0.1733,0.1807,0.1856,0.1953,0.1997,0.2097,0.2179,0.2354,0.2415,0.2625,0.2591,0.2679,0.2758,0.2759,0.2499,0.2406,0.228,0.2345,0.2707,0.2705,0.2703,0.2702,0,0.1449,0.1501,0.1508,0.1552,0.1645,0.1685,0.1762,0.1838,0.1876,0.1993,0.2035,0.2188,0.2315,0.2453,0.2616,0.265,0.2808,0.284,0.2674,0.2654,0.2539,0.2501,0.2983,0.2983,0.2983,0.2983,0.2983,0,0.1391,0.1422,0.1477,0.1505,0.1547,0.1626,0.1679,0.1756,0.1835,0.1907,0.2035,0.2128,0.236,0.2465,0.2587,0.2631,0.2762,0.2692,0.2654,0.2559,0.2524,0.2843,0.2826,0.2984,0.2984,0.2983,0.2983,0,0.1335,0.1359,0.1388,0.1468,0.1516,0.1557,0.169,0.1707,0.1793,0.1894,0.1951,0.2133,0.2283,0.2386,0.26,0.2576,0.2637,0.2611,0.2437,0.2376,0.246,0.2448,0.2459,0.2451,0.2444,0.2437,0.2432,0,0.1332,0.1313,0.1371,0.1405,0.1489,0.1556,0.1605,0.1698,0.1741,0.1908,0.1971,0.2125,0.2215,0.2297,0.2314,0.2325,0.2478,0.2161,0.22,0.2449,0.2413,0.2413,0.2411,0.2104,0.2097,0.2091,0.2086,0,0.1333,0.1325,0.1344,0.1386,0.1462,0.1507,0.162,0.1639,0.1752,0.185,0.1993,0.2065,0.2112,0.2072,0.1988,0.1998,0.2131,0.2029,0.2387,0.22,0.2101,0.2068,0.2083,0.2033,0.2038,0.2042,0.2045,0.2047,0.1354,0.1353,0.1342,0.1415,0.1448,0.1497,0.156,0.1619,0.1701,0.1828,0.1925,0.1964,0.1931,0.1766,0.1686,0.1615,0.1785,0.1749,0.1777,0.1808,0.1706,0.1594,0.1411,0.1413,0.1414,0.1416,0.1417,0,0.14,0.1393,0.1401,0.1454,0.1459,0.1525,0.1585,0.1593,0.1695,0.1732,0.1803,0.1621,0.1545,0.1514,0.1335,0.1242,0.1334,0.1191,0.1364,0.1415,0.1461,0.1351,0.0957,0.0955,0.0954,0.0953,0,0,0.1416,0.142,0.1415,0.1457,0.1519,0.1538,0.1587,0.1578,0.155,0.1518,0.1499,0.154,0.1505,0.1257,0.1168,0.1056,0.1245,0.1005,0.1379,0.1641,0.1686,0.178,0.1662,0,0,0,0,0]},{"header":{"parameterUnit":"m.s-1","parameterCategory":2,"la1":30.2991,"la2":30.254,"lo1":-89.0895,"lo2":-89.0444,"dy":0.0017,"dx":0.0017,"nx":28,"ny":28,"refTime":"2024-07-12T09:00:00:Z","depth":"2","parameterNumber":3,"parameterNumberName":"V-component_of_CURRENTS"},"data":[0,0,0,0,0,0,0,0,0,0,0,0,0,0,0,0,0,0,0,0,0,0,0,0,0,0,0,0,0,0,0,0,0,0,0,0,0,0,0,0,0,0,0,0,0,0,0,0,0,0,0,0,0,0,0,0,0,0,0.0307,0.0307,0,0.0258,0.0258,0.0258,0.0238,0.0238,0.0237,0.0237,0.0141,0.0139,0.0137,0,0,0,0,0,0,0,0,0,0,0,0,0,0.039,0.0389,0.0308,0.0307,0.0306,0.0258,0.0258,0.0258,0.0238,0.0238,0.0237,0.0237,0.0142,0.0139,0.0137,0,0,0,0,0,0,0,0,0,0,0,0,0,0.0353,0.0389,0.0308,0.0287,0.0284,0.0258,0.0258,0.0258,0.0238,0.0238,0.0237,0.0237,0.0143,0.014,0.0136,0.0123,0,0,0.0126,0.0124,0,0,0,0,0,0,0,0,0.0355,0.0351,0.0291,0.0288,0.0285,0.025,0.0252,0.0209,0.0238,0.026,0.0237,0.0237,0.0171,0.0165,0.0164,0.0119,0.0114,0.0125,0.0123,0.0122,0.0121,0,0,0,0,0,0,0,0.0358,0.0353,0.0292,0.029,0.0286,0.0282,0.0276,0.0244,0.0221,0.0258,0.0256,0.0243,0.017,0.0167,0.0161,0.0113,0.0125,0.0122,0.012,0.0119,0.0066,0.0066,0,0,0,0,0,0,0.0355,0.0355,0.0294,0.029,0.0315,0.028,0.0274,0.0265,0.0222,0.0214,0.0244,0.0243,0.0173,0.0165,0.0157,0.0173,0.0122,0.0119,0.0117,0.0065,0.0066,0.0066,0,0,0,0,0,0,0.0358,0.0351,0.0296,0.0318,0.031,0.0279,0.0269,0.0264,0.0261,0.0211,0.0203,0.0244,0.0172,0.0162,0.0144,0.0167,0.0117,0.0114,0.0064,0.0065,0.0066,0.0181,0,0,0,0,0,0,0.036,0.0352,0.0354,0.0318,0.0309,0.0296,0.0269,0.0264,0.0252,0.025,0.0208,0.0199,0.0171,0.015,0.0141,0.0162,0.0111,0.0063,0.0065,0.0066,0.0177,0.0186,0.0194,0,0,0,0,0,0.0363,0.0362,0.0354,0.0347,0.0309,0.0297,0.0293,0.0271,0.0252,0.0265,0.0235,0.0201,0.0151,0.0148,0.0137,0.0157,0.0063,0.0064,0.0066,0.0173,0.0184,0.0194,0,0,0,0,0,0,0.0396,0.0358,0.0349,0.0336,0.0326,0.0292,0.0291,0.0274,0.0262,0.0254,0.021,0.02,0.0194,0.0154,0.0152,0.0144,0.01,0.0099,0.0185,0.0195,0.0204,0.0224,0.0108,0,0,0,0,0,0.0404,0.0395,0.0365,0.0358,0.0351,0.0323,0.0315,0.0302,0.0278,0.0272,0.0243,0.0209,0.0191,0.0177,0.0152,0.0145,0.0111,0.0149,0.0158,0.0165,0.0173,0.0162,0.0171,0.0071,0.0071,0.0071,0,0,0.0411,0.039,0.0384,0.0365,0.035,0.0348,0.0319,0.0309,0.0314,0.0261,0.0261,0.0238,0.0196,0.0199,0.0191,0.0169,0.0172,0.0167,0.0175,0.0178,0.0164,0.0174,0.0183,0.0072,0.0072,0.0072,0,0,0.041,0.0407,0.0394,0.0395,0.0375,0.0368,0.0366,0.0342,0.0343,0.0341,0.0308,0.0306,0.0265,0.0257,0.0241,0.0278,0.0221,0.0261,0.0321,0.0311,0.032,0.0327,0.0288,0.0291,0.0264,0.0264,0.0265,0,0.0411,0.0405,0.0393,0.0388,0.0391,0.0378,0.0379,0.0382,0.036,0.0363,0.0353,0.0326,0.0298,0.0305,0.0329,0.0301,0.0272,0.0291,0.0325,0.0332,0.0337,0.0295,0.0297,0.027,0.027,0.0269,0.0268,0,0.0404,0.0409,0.0406,0.04,0.0409,0.0413,0.0414,0.0426,0.0425,0.0422,0.0435,0.0418,0.0401,0.04,0.038,0.0406,0.0365,0.0342,0.0306,0.0355,0.0306,0.0306,0.0278,0.0276,0.0275,0.0273,0,0,0.0375,0.0393,0.0395,0.0412,0.0421,0.0429,0.045,0.0467,0.0487,0.0488,0.0517,0.0513,0.0507,0.0491,0.0471,0.0477,0.0499,0.0437,0.0434,0.0411,0.0456,0.0417,0.0411,0.0487,0.0487,0.0488,0.0404,0,0.0371,0.0385,0.039,0.0423,0.0442,0.0455,0.0484,0.0503,0.0522,0.0554,0.0554,0.057,0.0539,0.055,0.0553,0.0523,0.0505,0.0522,0.0401,0.0397,0.0367,0.0413,0.0405,0.0329,0.0403,0.0403,0.0403,0,0.0367,0.0385,0.0413,0.0464,0.047,0.048,0.0538,0.0563,0.0601,0.0619,0.0636,0.0637,0.0657,0.0627,0.0587,0.06,0.0534,0.0501,0.0496,0.0421,0.0358,0.0292,0.0325,0.0402,0.0402,0.0402,0.0402,0,0.0387,0.0409,0.0443,0.0458,0.0501,0.0511,0.053,0.0573,0.0618,0.066,0.0711,0.0702,0.0738,0.0665,0.0597,0.0596,0.0541,0.0519,0.0405,0.04,0.0349,0.0338,0.0467,0.0467,0.0467,0.0467,0.0468,0,0.0402,0.0422,0.045,0.0472,0.0514,0.0533,0.0585,0.0605,0.0667,0.0752,0.0746,0.0825,0.076,0.0726,0.0619,0.0516,0.0541,0.0425,0.0388,0.0386,0.038,0.0406,0.0401,0.0464,0.0465,0.0466,0.0466,0,0.0414,0.0432,0.048,0.0521,0.0525,0.056,0.0612,0.0669,0.0718,0.0835,0.0861,0.0925,0.0902,0.0782,0.068,0.0566,0.0445,0.0379,0.0368,0.0333,0.03,0.0301,0.0269,0.0267,0.0265,0.0264,0.0263,0,0.0405,0.0439,0.0514,0.0543,0.0548,0.0593,0.0638,0.0684,0.0769,0.0914,0.0995,0.1012,0.1039,0.0848,0.0649,0.0418,0.0414,0.0262,0.0267,0.0319,0.0286,0.0289,0.0292,0.0232,0.023,0.0229,0.0229,0,0.0396,0.0443,0.0495,0.0576,0.0617,0.0688,0.0754,0.0844,0.0955,0.1064,0.1215,0.1233,0.1065,0.0872,0.0553,0.0405,0.0303,0.0235,0.0301,0.0289,0.0279,0.0248,0.0253,0.022,0.022,0.0221,0.0222,0.0222,0.0383,0.044,0.0531,0.0608,0.0671,0.0793,0.0899,0.101,0.117,0.1351,0.1347,0.1349,0.11,0.0702,0.0461,0.0224,0.0245,0.0152,0.0158,0.0164,0.0181,0.017,0.009,0.009,0.009,0.009,0.0091,0,0.0376,0.0452,0.0542,0.0668,0.0785,0.0789,0.0992,0.1127,0.1353,0.1412,0.1486,0.1225,0.0976,0.0702,0.0331,0.0106,0.0103,0.0053,0.0097,0.0106,0.0114,0.0131,0.0026,0.0025,0.0025,0.0025,0,0,0.0375,0.0478,0.0561,0.0744,0.0828,0.1019,0.1164,0.1324,0.1426,0.1504,0.1456,0.1345,0.1001,0.0723,0.0428,0.0233,0.0228,0.0196,0.0264,0.0357,0.0369,0.0177,0.0213,0,0,0,0,0]}],[{"header":{"parameterUnit":"m.s-1","parameterCategory":2,"la1":30.2991,"la2":30.254,"lo1":-89.0895,"lo2":-89.0444,"dy":0.0017,"dx":0.0017,"nx":28,"ny":28,"refTime":"2024-07-12T09:00:00:Z","depth":"4","parameterNumber":2,"parameterNumberName":"U-component_of_CURRENTS"},"data":[0,0,0,0,0,0,0,0,0,0,0,0,0,0,0,0,0,0,0,0,0,0,0,0,0,0,0,0,0,0,0,0,0,0,0,0,0,0,0,0,0,0,0,0,0,0,0,0,0,0,0,0,0,0,0,0,0,0,-0.012,-0.0121,0,-0.0146,-0.0146,-0.0146,-0.0149,-0.0149,-0.0148,-0.0148,-0.0143,-0.0143,-0.0143,0,0,0,0,0,0,0,0,0,0,0,0,0,-0.0098,-0.0098,-0.012,-0.0121,-0.0121,-0.0146,-0.0146,-0.0146,-0.0149,-0.0149,-0.0148,-0.0148,-0.0143,-0.0143,-0.0143,0,0,0,0,0,0,0,0,0,0,0,0,0,-0.0113,-0.0098,-0.012,-0.0126,-0.0127,-0.0146,-0.0146,-0.0146,-0.0149,-0.0149,-0.0148,-0.0148,-0.0143,-0.0143,-0.0143,-0.015,0,0,-0.0144,-0.0144,0,0,0,0,0,0,0,0,-0.0112,-0.0114,-0.0124,-0.0125,-0.0126,-0.0144,-0.0136,-0.0146,-0.0149,-0.014,-0.0148,-0.0148,-0.0141,-0.0142,-0.0147,-0.015,-0.0149,-0.0144,-0.0144,-0.0144,-0.0144,0,0,0,0,0,0,0,-0.0111,-0.0113,-0.013,-0.0125,-0.0126,-0.0135,-0.0137,-0.0139,-0.0141,-0.014,-0.0141,-0.0145,-0.0142,-0.0146,-0.0146,-0.0149,-0.0144,-0.0144,-0.0144,-0.0144,-0.0139,-0.0139,0,0,0,0,0,0,-0.0109,-0.0112,-0.0129,-0.013,-0.0119,-0.0136,-0.0138,-0.0138,-0.0141,-0.0142,-0.0145,-0.0145,-0.0146,-0.0146,-0.0146,-0.0111,-0.0144,-0.0144,-0.0144,-0.0139,-0.0139,-0.0139,0,0,0,0,0,0,-0.0108,-0.011,-0.0128,-0.0123,-0.0126,-0.0137,-0.0137,-0.0139,-0.0139,-0.0146,-0.0145,-0.0143,-0.0146,-0.0146,-0.0135,-0.0112,-0.0144,-0.0144,-0.014,-0.0139,-0.0139,-0.0067,0,0,0,0,0,0,-0.0107,-0.0109,-0.0112,-0.0122,-0.0126,-0.0144,-0.0138,-0.014,-0.0143,-0.0143,-0.0144,-0.0143,-0.0146,-0.0134,-0.0135,-0.0113,-0.0144,-0.014,-0.0139,-0.0139,-0.007,-0.0064,-0.006,0,0,0,0,0,-0.0106,-0.0114,-0.0112,-0.0114,-0.0128,-0.0144,-0.0147,-0.0153,-0.0143,-0.015,-0.0136,-0.0143,-0.0133,-0.0134,-0.0134,-0.0112,-0.014,-0.014,-0.0139,-0.0072,-0.0065,-0.006,0,0,0,0,0,0,-0.0108,-0.0115,-0.0113,-0.0122,-0.0133,-0.0145,-0.0152,-0.015,-0.0146,-0.0133,-0.0136,-0.0135,-0.0117,-0.0132,-0.0133,-0.0114,-0.014,-0.0139,-0.0089,-0.0083,-0.0078,-0.004,-0.0144,0,0,0,0,0,-0.0109,-0.0117,-0.0123,-0.0134,-0.0134,-0.0139,-0.0146,-0.0142,-0.0141,-0.0139,-0.0121,-0.0116,-0.0118,-0.0114,-0.0113,-0.0102,-0.0124,-0.0092,-0.0087,-0.0083,-0.0054,-0.0086,-0.0081,-0.0138,-0.0138,-0.0138,0,0,-0.0118,-0.012,-0.0128,-0.0135,-0.014,-0.0134,-0.0142,-0.0144,-0.0125,-0.0137,-0.0092,-0.0093,-0.0112,-0.0093,-0.0087,-0.01,-0.0082,-0.0082,-0.0078,-0.0051,-0.0085,-0.0079,-0.0074,-0.0137,-0.0138,-0.0138,0,0,-0.0134,-0.0134,-0.0141,-0.0141,-0.014,-0.0134,-0.0131,-0.0116,-0.0099,-0.0063,-0.0069,-0.0057,-0.0038,-0.005,-0.0058,-0.0032,-0.0055,-0.0032,0.0029,-0.0003,0.0002,0.0007,-0.0025,-0.0024,-0.0029,-0.0029,-0.0029,0,-0.0134,-0.0143,-0.0148,-0.0144,-0.0133,-0.0128,-0.0114,-0.0102,-0.0077,-0.0048,-0.0036,-0.0002,-0.0019,-0.0016,0.0007,-0.0019,-0.0032,0.0012,0.0006,0.001,0.0013,-0.002,-0.002,-0.0026,-0.0026,-0.0027,-0.0027,0,-0.0151,-0.0149,-0.0151,-0.0134,-0.0124,-0.0116,-0.0088,-0.0053,-0.0009,0.0015,0.0061,0.0052,0.0081,0.0062,0.0055,0.0067,0.0051,0.0016,-0.0003,0.0023,-0.0014,-0.0015,-0.0021,-0.0022,-0.0023,-0.0024,0,0,-0.0139,-0.0159,-0.0151,-0.0138,-0.0109,-0.0096,-0.005,-0.0006,0.0042,0.0084,0.0142,0.0147,0.0175,0.0168,0.0146,0.0124,0.0127,0.0105,0.0101,0.0086,0.0072,0.0122,0.0125,0.0102,0.0102,0.0103,0.0034,0,-0.0134,-0.0144,-0.0134,-0.0104,-0.0095,-0.0053,-0.0005,0.0043,0.0096,0.0158,0.0161,0.0207,0.0201,0.0231,0.0213,0.0153,0.0131,0.015,0.004,0.0037,0.0088,0.0128,0.0104,0.0033,0.0033,0.0032,0.0032,0,-0.0116,-0.0132,-0.0122,-0.0076,-0.006,-0.0016,0.0083,0.0129,0.02,0.0245,0.0299,0.031,0.0321,0.0297,0.0236,0.0259,0.0196,0.0131,0.0125,0.0156,0.0087,0.0001,0.0029,0.003,0.003,0.003,0.003,0,-0.0092,-0.0089,-0.0082,-0.0073,-0.0035,0.0026,0.009,0.0174,0.0215,0.0319,0.0348,0.0381,0.0391,0.0337,0.0249,0.0257,0.0145,0.0119,0.0092,0.0093,0.0033,0.003,0.0064,0.0065,0.0065,0.0065,0.0065,0,-0.0061,-0.0045,-0.0065,-0.0053,0.0002,0.0059,0.016,0.0227,0.0303,0.035,0.041,0.0429,0.0406,0.0343,0.0267,0.0192,0.0159,0.0132,0.0093,0.0061,0.0062,0.0031,0.0028,0.0062,0.0063,0.0063,0.0064,0,-0.0013,-0.0044,-0.0033,-0.0005,0.0014,0.0079,0.0184,0.0243,0.0328,0.0385,0.0419,0.0458,0.0444,0.0364,0.0259,0.0212,0.0118,0.0077,0.0055,0.001,0.0086,0.0087,0.0094,0.0095,0.0096,0.0098,0.0098,0,0.0002,0.0001,-0.0003,0.0006,0.0033,0.0117,0.0168,0.0259,0.0303,0.0388,0.0394,0.0425,0.0445,0.0346,0.0272,0.0159,0.0125,0.0073,0.0112,0.0135,0.0095,0.0095,0.0094,0.0101,0.0101,0.0101,0.0102,0,0.0032,0.003,0.0033,0.0035,0.0076,0.0107,0.0191,0.0212,0.0313,0.0346,0.0423,0.0442,0.0423,0.0395,0.0306,0.0202,0.0124,0.0086,0.0083,0.012,0.0143,0.0102,0.01,0.0106,0.0105,0.0105,0.0105,0,0.006,0.0065,0.0055,0.0073,0.0098,0.0116,0.0158,0.0228,0.0278,0.0372,0.0388,0.0422,0.0452,0.0411,0.0306,0.0259,0.0261,0.0226,0.0216,0.021,0.0276,0.0324,0.0335,0,0,0,0,0,0.0074,0.0077,0.0091,0.0091,0.0117,0.0126,0.0167,0.02,0.026,0.0327,0.0378,0.0387,0.0388,0.038,0.035,0.0295,0.0204,0.0252,0.0146,0.0131,0.0126,0.0191,0,0,0,0,0,0,0.0078,0.009,0.0087,0.0101,0.0115,0.013,0.0158,0.0189,0.0241,0.0315,0.0321,0.0371,0.0355,0.0415,0.0352,0.0338,0.0264,0.0258,0.0257,0.0134,0.0129,0.0125,0.0191,0,0,0,0,0]},{"header":{"parameterUnit":"m.s-1","parameterCategory":2,"la1":30.2991,"la2":30.254,"lo1":-89.0895,"lo2":-89.0444,"dy":0.0017,"dx":0.0017,"nx":28,"ny":28,"refTime":"2024-07-12T09:00:00:Z","depth":"4","parameterNumber":3,"parameterNumberName":"V-component_of_CURRENTS"},"data":[0,0,0,0,0,0,0,0,0,0,0,0,0,0,0,0,0,0,0,0,0,0,0,0,0,0,0,0,0,0,0,0,0,0,0,0,0,0,0,0,0,0,0,0,0,0,0,0,0,0,0,0,0,0,0,0,0,0,0.0481,0.0481,0,0.051,0.051,0.0511,0.0565,0.0566,0.0567,0.0568,0.0644,0.0645,0.0646,0,0,0,0,0,0,0,0,0,0,0,0,0,0.047,0.047,0.0481,0.0481,0.0482,0.051,0.051,0.0511,0.0565,0.0566,0.0567,0.0568,0.0643,0.0644,0.0646,0,0,0,0,0,0,0,0,0,0,0,0,0,0.0484,0.047,0.0481,0.0512,0.0515,0.051,0.051,0.0511,0.0564,0.0566,0.0568,0.0569,0.0643,0.0644,0.0646,0.0625,0,0,0.0651,0.0651,0,0,0,0,0,0,0,0,0.0483,0.0485,0.0507,0.051,0.0513,0.0535,0.0534,0.0551,0.0564,0.0546,0.0568,0.057,0.061,0.0615,0.0616,0.0628,0.0631,0.0651,0.0652,0.0652,0.0653,0,0,0,0,0,0,0,0.0482,0.0484,0.0493,0.0507,0.0511,0.0524,0.0527,0.0538,0.057,0.0548,0.0551,0.0554,0.0613,0.0615,0.0619,0.0633,0.0651,0.0652,0.0653,0.0654,0.063,0.0628,0,0,0,0,0,0,0.0477,0.0483,0.0492,0.0493,0.0502,0.0522,0.0527,0.0527,0.0569,0.0577,0.0553,0.0556,0.0611,0.0617,0.0622,0.0602,0.0652,0.0654,0.0655,0.0631,0.0629,0.0628,0,0,0,0,0,0,0.0476,0.0477,0.0491,0.0489,0.0492,0.0521,0.0521,0.0526,0.0565,0.0572,0.0581,0.059,0.0613,0.0619,0.0648,0.0605,0.0655,0.0656,0.0633,0.0631,0.0628,0.056,0,0,0,0,0,0,0.0476,0.0477,0.0484,0.0488,0.0491,0.0494,0.0519,0.0526,0.0562,0.0568,0.0606,0.0613,0.0614,0.0646,0.065,0.0608,0.0657,0.0635,0.0632,0.0629,0.0565,0.0556,0.0549,0,0,0,0,0,0.0475,0.0478,0.0484,0.0486,0.0498,0.0494,0.0497,0.0523,0.0563,0.0568,0.06,0.0614,0.0628,0.0647,0.0652,0.0609,0.0636,0.0633,0.0629,0.0568,0.0558,0.0549,0,0,0,0,0,0,0.0471,0.0484,0.0491,0.0496,0.0497,0.0503,0.0519,0.0542,0.0572,0.0607,0.0614,0.0621,0.0618,0.0632,0.0652,0.0591,0.0626,0.0623,0.0577,0.0568,0.056,0.0556,0.0659,0,0,0,0,0,0.0472,0.0485,0.0485,0.0489,0.0497,0.0517,0.0527,0.0555,0.0576,0.0594,0.0616,0.0628,0.0598,0.0606,0.06,0.0589,0.0584,0.0557,0.0549,0.0542,0.054,0.0482,0.0468,0.0616,0.0616,0.0616,0,0,0.0474,0.048,0.0489,0.0491,0.0503,0.0511,0.0528,0.0564,0.0566,0.0597,0.0625,0.0616,0.0591,0.056,0.0558,0.0575,0.0499,0.0538,0.0532,0.0534,0.0477,0.0462,0.0449,0.0613,0.0614,0.0614,0,0,0.0476,0.0489,0.0502,0.0515,0.0543,0.0538,0.0556,0.0586,0.0594,0.0606,0.0607,0.0579,0.058,0.0527,0.0498,0.0448,0.046,0.0447,0.0404,0.0346,0.0333,0.0322,0.0307,0.0294,0.0441,0.0441,0.0441,0,0.0479,0.0498,0.0501,0.0523,0.054,0.0553,0.0575,0.0565,0.0601,0.0587,0.0615,0.0552,0.0543,0.0447,0.0418,0.0426,0.042,0.0442,0.0335,0.0324,0.0313,0.03,0.0287,0.0437,0.0438,0.0438,0.0438,0,0.0489,0.0523,0.0536,0.0557,0.056,0.0595,0.058,0.0582,0.0593,0.0574,0.0518,0.0487,0.0444,0.0409,0.0397,0.0299,0.0329,0.0332,0.0359,0.0294,0.0285,0.0273,0.0432,0.0433,0.0434,0.0435,0,0,0.0474,0.0532,0.0546,0.0577,0.0604,0.0608,0.0582,0.0543,0.0521,0.0507,0.0453,0.0364,0.0358,0.0325,0.0294,0.0229,0.0144,0.0252,0.0251,0.0238,0.0049,0.0088,0.008,0.0132,0.013,0.0127,0.0076,0,0.0493,0.054,0.0558,0.0605,0.0634,0.0632,0.0594,0.0562,0.0517,0.0465,0.0381,0.0338,0.0318,0.0304,0.0223,0.0159,0.0109,0.016,0.0115,0.0114,0.0155,0.0065,0.0119,0.0067,0.0065,0.0063,0.0061,0,0.0512,0.0545,0.059,0.0639,0.0649,0.0674,0.0625,0.0601,0.0495,0.0458,0.0376,0.0329,0.0213,0.0228,0.0075,0.0114,0.0085,0.0039,0.0036,0.0089,0.0129,0.0144,0.004,0.0042,0.0043,0.0045,0.0046,0,0.0501,0.0579,0.0611,0.0639,0.0666,0.0688,0.0702,0.0619,0.0567,0.048,0.0426,0.0298,0.0246,0.0152,0.0069,0.0071,-0.0074,-0.008,-0.0071,-0.0066,-0.005,-0.0038,-0.0166,-0.0166,-0.0166,-0.0166,-0.0166,0,0.0517,0.0564,0.0637,0.0667,0.0706,0.0735,0.074,0.0699,0.0622,0.0545,0.0457,0.036,0.0225,0.0124,0.0057,-0.0042,-0.0077,-0.0095,-0.0095,-0.0075,-0.0065,-0.0058,-0.0045,-0.0168,-0.0167,-0.0167,-0.0167,0,0.051,0.0549,0.0597,0.0668,0.0708,0.0743,0.08,0.0765,0.0709,0.0602,0.0578,0.0394,0.0259,0.0146,-0.0001,-0.0045,-0.0138,-0.0139,-0.0082,-0.0074,-0.0089,-0.0079,-0.0182,-0.0181,-0.0181,-0.018,-0.018,0,0.0507,0.0533,0.0606,0.0643,0.0705,0.0787,0.0811,0.0804,0.0751,0.0609,0.0529,0.0395,0.0279,0.0101,-0.0012,-0.0125,-0.0124,-0.0141,-0.0162,-0.0111,-0.01,-0.009,-0.008,-0.0179,-0.0179,-0.0179,-0.0179,0,0.0502,0.052,0.0556,0.0633,0.07,0.0742,0.0804,0.0783,0.0725,0.065,0.0495,0.0387,0.0236,0.0088,0.0036,-0.0054,-0.0136,-0.0138,-0.014,-0.016,-0.0109,-0.0096,-0.0087,-0.0177,-0.0178,-0.0178,-0.0178,0,0.0494,0.0512,0.0555,0.0628,0.0693,0.0725,0.0758,0.0743,0.0699,0.0564,0.0516,0.0362,0.0258,0.0126,0.0051,-0.0013,-0.0052,-0.0057,-0.0065,-0.0067,-0.0018,0.0065,0.0029,0,0,0,0,0,0.0483,0.0515,0.0565,0.0632,0.0689,0.0728,0.074,0.0746,0.0713,0.0609,0.0571,0.044,0.0284,0.0184,0.0123,0.0049,-0.0056,-0.0022,-0.0062,-0.0169,-0.0171,-0.013,0,0,0,0,0,0,0.0479,0.0518,0.0551,0.063,0.0692,0.0734,0.0755,0.0718,0.0665,0.0616,0.0525,0.0447,0.0287,0.0329,0.0129,0.0099,0.0072,-0.0114,-0.0115,-0.0168,-0.0169,-0.0171,-0.0129,0,0,0,0,0]}]]